Location: Newark
(7.0858°N, 171.3717°E)
Time: 16:53:34
(UTC+00:00)

Altair - Pass Details

Date: 01 December 2020
Orbit: 1501 x 1682 km, 47.2° (Epoch: 20 January)

Event Time Altitude Azimuth Distance (km) Brightness Sun altitude
Exits shadow 18:05:57 - 293° (WNW) 3,932 8.9 -6.8°
Reaches altitude 10° 18:06:47 10° 290° (WNW) 3,706 8.8 -6.6°
Maximum altitude 18:14:47 32° 231° (SW) 2,449 8.4 -4.7°
Drops below altitude 10° 18:23:05 10° 171° (S) 3,830 10.0 -2.8°
Sets 18:26:45 0° 162° (SSE) 4,844 10.8 -2.0°
